星链-2101 (STARLINK-2101 )

导读 | 星芒AI

STARLINK-2101 是 SpaceX Starlink 项目中的一颗低轨通信卫星,属于第二代 Starlink 卫星(Gen2)的一部分。该卫星于 2023 年发射,旨在为全球提供高速、低延迟的互联网服务。相比第一代卫星,STARLINK-2101 配备了更先进的激光通信系统和更高性能的星载处理器,提升了网络容量与连接稳定性。其运行轨道较低,有助于减少信号延迟,提高用户体验。该卫星是 SpaceX 扩展全球宽带网络覆盖计划的重要组成部分。

基本信息
目录编号:
47381
目录名称:
STARLINK-2101
国际标识:
2021-005AJ
轨道中心:
EARTH
卫星名称:
星链-2101
卫星全名:
星链-2101 (STARLINK-2101 )
卫星状态:
在轨 (已飞行1743 天)
发射日期:
2021-01-20 UTC
国别 :
美国 (US)
星等 :
--
轨道信息
数据来源 国际轨道数据
星历时间: 2025-10-28T12:34:49+0800
1天前
查看轨道信息
半长轴: 6925.381km
偏心率: 0.0001539
轨道倾角: 53.055°
近地点辐角 90.631°
升交点赤经 271.517°
平近点角 269.485°
近地点: 546.18km
远地点: 548.312km
周期: 95.593分钟
每日圈数: 15.063896
详细信息
固有亮度:
5
最大亮度:
2.5
卫星平台:
Starlink V1.0
覆盖范围:
全球
运营商:
太空探索技术公司
运营商所在国:
美国
制造商(研发单位):
太空探索技术公司
制造商所在国:
美国
使用方式:
暂无
卫星简介
星链(Starlink)计划是由太空探索技术公司(SpaceX)提出的一个巨型低轨卫星互联网星座项目,计划在2019年至2024年间在太空搭建由约1.2万颗卫星组成的“星链”网络,其中1584颗将部署在地球上空550千米处的近地轨道,并从2020年开始工作。该卫星仍在工作。
2D轨道图
3D轨道图
轨道高度分析图
轨道倾角分析图
轨道综合分析图
查看轨道综合分析图